Wind_Speed
8 7 7 10 6 2 1 4 3 5 3 2 2 3 4 5 7 3 6 7 14 11 10 10 11 12 15 15 14 14 13 12 11 11 13 12 13 12 11 10 9 8 7 9 10 11 11 11 11
8 7 8 10 6 2 3 6 7 3 4 5 3 2 2 4 3 6 3 8 10 10 9 8 9 12 17 18 17 17 17 15 15 13 13 13 13 14 14 12 11 9 8 9 10 11 11 11 12
8 7 9 6 5 5 6 10 10 2 4 3 4 5 7 8 6 8 6 3 5 7 8 8 10 11 15 21 21 20 20 19 17 17 15 14 14 14 15 14 12 11 10 10 10 11 10 11 11
8 8 9 10 10 4 4 5 7 4 7 3 1 3 5 4 9 9 8 9 10 11 13 15 17 18 15 19 25 24 23 22 21 19 17 15 15 15 15 15 14 12 11 11 10 11 11 12 11
8 9 12 12 9 6 3 2 2 4 6 6 4 4 6 9 10 9 12 14 15 15 16 17 17 17 18 18 25 27 26 25 23 21 20 17 16 16 15 15 15 14 13 12 12 11 12 12 12
10 9 11 13 11 6 3 6 5 5 6 5 6 8 9 10 8 12 14 16 17 15 15 16 17 16 16 16 23 29 29 27 25 23 22 21 18 17 17 16 16 16 15 13 13 13 12 13 13
12 12 15 15 14 11 5 9 11 10 10 8 8 8 9 10 12 15 17 18 19 17 17 18 18 17 16 18 19 24 31 29 27 25 25 23 21 19 19 18 17 16 16 15 14 13 14 14 13
13 14 15 16 15 13 10 12 14 15 13 12 12 6 9 12 14 16 18 19 20 20 19 21 21 20 19 19 21 22 28 31 29 28 27 27 25 22 21 19 18 17 16 15 15 14 14 15 14
14 15 15 15 15 10 9 15 15 17 18 15 12 9 10 9 12 17 20 23 24 25 24 24 25 24 22 22 21 22 23 30 32 31 30 30 29 26 24 22 20 19 18 17 16 16 16 16 16
15 19 14 14 15 18 20 21 22 20 21 20 19 16 16 17 19 22 24 26 28 28 28 29 28 26 25 23 22 22 23 26 32 34 33 32 32 29 27 26 24 22 20 20 18 17 17 18 17
18 20 17 16 19 24 25 24 24 21 18 17 21 23 24 25 27 28 29 30 32 33 32 30 30 31 30 27 27 27 26 27 30 35 35 34 34 33 31 29 28 26 25 22 21 20 19 18 19
19 19 18 18 18 23 24 26 24 20 19 21 20 21 23 27 30 30 31 33 36 38 37 36 35 33 33 33 32 32 29 27 30 33 36 36 36 35 33 32 31 30 28 26 25 23 22 21 22
18 20 21 21 21 22 24 24 24 25 20 21 22 22 26 29 30 29 27 28 30 32 33 36 37 36 38 39 39 36 32 29 29 30 35 38 38 36 36 35 34 33 32 30 29 28 25 24 25
22 23 23 25 23 23 26 26 24 22 23 18 19 22 22 24 26 25 22 20 23 26 27 29 28 30 33 37 36 35 30 30 32 30 31 36 38 43 39 38 38 35 33 32 31 31 29 29 28
21 25 23 20 21 22 26 26 21 12 14 17 17 19 20 26 25 26 25 24 24 27 28 27 28 29 26 29 28 27 28 29 31 30 31 39 44 52 47 43 41 37 36 34 32 33 33 33 32
25 27 23 7 16 17 24 28 21 20 25 27 26 26 25 27 27 27 28 27 26 26 31 29 27 27 27 22 23 25 26 27 29 30 30 29 30 50 59 38 43 38 36 35 36 38 38 37 34
18 16 19 20 16 16 14 21 20 21 25 28 24 24 27 29 31 31 32 31 31 29 30 29 29 28 26 22 22 24 25 26 24 25 28 27 28 30 33 30 44 49 44 33 39 40 43 40 40
12 12 20 23 24 20 22 28 23 20 21 21 21 22 24 25 25 30 31 31 34 34 34 32 30 31 28 26 24 24 24 26 28 29 29 32 35 34 36 36 34 38 41 44 54 56 44 45 50
17 19 23 24 19 24 26 27 25 27 27 27 24 25 28 28 28 30 30 30 29 30 35 34 35 32 34 31 29 30 29 28 28 30 32 34 38 42 39 37 38 39 41 44 44 53 57 60 53
18 19 20 21 15 23 28 35 33 22 24 25 19 19 20 22 26 29 27 28 28 28 31 35 35 33 35 35 35 35 35 33 32 35 38 39 40 42 40 37 39 42 44 45 43 42 50 46 57
18 16 18 22 22 24 33 29 1 25 20 14 24 24 21 22 23 23 25 28 28 31 32 32 36 37 32 34 36 37 35 35 38 39 40 40 40 40 40 41 40 44 46 45 43 43 44 37 59
21 17 18 20 21 20 25 10 27 6 9 26 19 19 18 17 21 24 26 29 30 32 34 35 35 38 43 38 37 40 41 38 40 42 41 38 40 43 41 39 41 46 47 46 44 41 39 31 46
18 12 14 17 19 21 11 13 7 19 29 18 15 13 14 19 21 26 29 31 31 31 33 34 33 32 32 37 42 43 42 43 39 42 42 42 43 43 43 40 38 41 48 46 44 43 42 40 43
14 15 19 18 18 8 17 17 16 16 17 18 18 13 16 21 22 22 31 32 30 33 35 29 29 31 31 33 35 37 36 38 40 42 43 42 43 42 43 43 42 40 43 47 45 44 45 45 46
17 14 4 2 4 6 9 12 23 26 24 21 13 9 13 17 20 21 14 26 19 25 34 23 21 23 23 25 27 30 32 35 37 38 40 43 42 42 41 43 43 43 43 45 47 46 46 47 48
10 16 9 4 3 4 5 8 11 19 22 19 12 11 8 9 17 18 17 11 12 18 19 24 25 26 27 22 25 31 33 38 36 39 42 45 45 44 42 43 44 45 44 45 48 48 48 49 50
11 15 16 19 11 4 8 17 22 24 22 22 18 8 7 1 9 5 6 9 11 15 20 23 27 27 26 25 28 36 40 41 42 42 43 47 47 46 45 43 43 43 45 45 46 49 50 50 50
23 14 6 7 2 4 7 14 19 21 19 20 18 8 6 8 10 12 10 12 15 19 25 29 31 33 30 28 29 29 28 38 44 45 45 47 47 47 46 43 42 43 44 44 45 48 51 51 51
21 20 15 13 10 4 2 10 14 18 18 13 11 5 8 11 13 12 15 19 20 25 31 36 38 33 32 32 33 33 34 33 35 39 41 41 41 43 42 42 41 42 44 44 45 47 50 52 52
22 26 26 16 7 12 6 25 28 21 15 15 7 11 12 13 15 16 18 22 22 26 31 37 36 33 31 32 32 33 34 32 32 34 36 37 36 36 38 39 40 41 41 43 46 47 48 50 51
Wind_Direction
280 282 282 282 285 270 323 64 24 340 148 64 29 95 153 154 156 230 314 257 212 217 211 208 221 229 230 223 225 230 239 256 278 299 312 322 320 321 319 316 309 294 265 244 231 223 221 221 225
276 275 273 276 265 233 97 35 2 346 177 145 51 317 256 281 308 360 128 198 219 229 231 247 260 254 243 237 231 234 240 246 258 274 295 310 316 316 318 319 313 301 282 263 251 241 235 233 237
273 265 267 268 263 237 169 8 340 236 191 207 274 280 300 315 338 344 331 298 258 255 260 266 275 271 259 244 239 238 240 244 250 257 275 297 309 312 314 316 313 308 300 288 276 263 255 248 246
260 257 259 258 257 264 214 360 357 215 192 229 291 282 284 307 325 322 313 303 302 294 286 286 286 282 272 254 242 240 242 244 248 252 260 280 298 305 307 311 312 309 303 293 283 274 263 256 256
247 244 251 257 265 262 254 240 339 159 172 200 225 261 281 306 306 317 312 309 299 296 299 301 294 295 274 260 244 240 241 243 246 250 254 265 283 294 295 303 308 309 304 300 293 282 276 266 263
256 244 251 262 271 272 224 216 226 230 210 220 250 255 266 277 275 290 284 288 291 297 299 307 308 304 278 267 256 242 239 243 245 248 251 257 267 282 289 292 297 303 305 300 296 293 282 275 270
256 253 254 266 280 285 224 219 234 225 227 249 267 270 262 266 266 273 275 282 284 288 294 301 302 300 297 274 263 253 244 242 245 246 249 250 257 265 272 279 288 292 299 300 295 292 288 277 273
251 256 263 271 277 280 266 217 229 232 220 230 251 272 270 265 261 256 262 271 275 283 290 295 298 295 292 292 273 261 248 240 242 244 246 246 249 254 262 266 275 281 286 291 292 288 285 282 276
254 250 260 270 277 280 251 240 245 248 235 236 246 270 284 286 264 255 265 274 276 279 287 294 295 296 294 289 285 267 257 246 241 242 244 245 246 249 255 259 264 267 268 272 280 287 281 276 276
254 259 267 267 277 273 265 267 273 259 255 254 252 261 273 275 274 273 273 275 279 283 285 290 292 293 294 289 280 275 261 250 244 243 244 246 246 247 250 251 251 255 258 262 264 271 274 276 275
261 264 268 269 268 273 277 278 282 286 273 280 277 263 262 263 264 266 267 269 274 277 282 287 288 289 287 285 283 285 277 261 250 244 244 245 246 247 249 252 252 252 255 256 257 260 267 269 270
261 266 271 272 270 274 280 284 289 289 288 291 287 278 273 275 270 268 270 269 269 270 276 279 282 283 285 286 282 283 276 268 256 248 243 244 246 246 247 249 251 251 252 252 252 251 254 258 262
268 274 270 277 278 280 286 284 292 293 297 290 291 286 280 280 279 280 276 269 271 275 274 274 276 280 282 282 281 278 277 267 260 253 244 240 242 245 246 247 248 249 250 251 253 253 250 253 256
272 274 278 281 286 287 286 282 280 297 293 284 273 273 276 282 283 273 270 278 273 276 279 280 277 277 277 280 282 277 272 265 261 257 246 243 242 242 247 245 245 246 248 251 253 255 254 248 251
276 278 279 288 289 285 275 280 289 272 265 276 274 276 278 277 277 271 271 266 268 278 283 281 277 280 284 282 279 274 270 264 262 263 267 258 249 250 250 246 245 242 243 246 250 252 255 255 255
276 283 291 272 291 277 283 286 283 260 276 275 281 286 282 280 279 272 266 271 272 277 274 274 275 281 290 292 280 272 266 266 267 269 273 274 279 249 243 250 247 245 244 246 249 250 251 254 255
280 275 286 291 289 294 282 286 282 289 290 293 298 290 281 278 274 276 269 272 278 281 277 272 274 277 284 285 283 278 274 271 272 273 275 276 278 279 278 280 260 253 253 231 243 253 251 251 252
286 281 286 288 294 285 277 279 294 304 307 305 302 295 293 286 280 272 270 274 269 276 275 271 275 281 275 280 283 278 272 276 280 279 279 284 287 289 289 279 269 267 257 254 241 247 254 245 242
272 279 284 287 294 293 296 301 308 311 313 305 302 303 291 295 293 295 288 281 281 276 264 261 266 273 276 272 273 273 268 270 278 285 286 289 294 296 291 282 271 264 260 260 262 253 253 263 240
269 279 288 291 295 300 303 303 307 313 308 312 313 308 301 300 298 302 292 286 283 276 272 265 260 259 266 267 264 261 262 265 271 276 281 285 290 294 291 280 274 267 263 261 261 262 262 270 232
258 269 292 296 306 300 309 313 117 306 310 314 314 310 307 296 292 285 275 273 269 260 257 259 264 263 267 266 265 262 259 265 269 273 276 280 286 292 289 284 277 274 272 270 267 266 269 256 231
269 282 291 296 302 300 315 285 304 280 287 308 311 315 303 303 303 287 273 267 267 265 260 261 260 258 268 267 273 272 270 268 270 271 272 276 284 286 282 280 278 275 274 273 271 269 269 268 236
275 301 296 296 290 291 287 275 268 291 289 294 310 304 305 307 300 287 270 265 265 265 264 262 259 254 253 262 264 266 268 268 267 268 269 275 279 278 276 272 269 272 273 272 271 268 263 257 252
278 281 286 283 277 268 260 232 294 298 297 306 315 309 316 312 309 294 280 267 260 266 265 254 255 258 255 253 255 258 259 261 263 263 269 272 275 275 276 274 269 263 266 269 268 266 263 260 258
258 267 307 289 172 239 150 210 257 285 290 301 296 306 313 307 316 293 317 341 326 293 255 241 250 258 259 265 268 273 271 271 265 269 273 276 277 277 276 275 272 267 260 262 263 262 261 259 258
249 240 203 245 216 256 270 239 252 275 280 280 276 288 322 286 311 301 303 332 337 360 355 355 315 285 279 280 282 274 273 272 277 273 274 278 280 279 276 273 271 269 264 259 259 260 257 256 255
234 224 249 250 275 280 249 259 268 279 287 278 276 280 297 292 338 327 320 333 341 337 332 330 329 324 312 303 287 283 285 288 287 287 286 285 285 283 279 275 272 268 265 260 257 258 257 255 254
234 259 209 202 218 236 259 259 265 283 283 278 258 277 272 269 305 299 286 308 321 329 331 333 329 323 317 315 311 302 283 275 280 284 283 283 283 283 282 279 274 269 264 260 254 254 256 256 254
240 238 232 245 227 202 277 260 286 298 293 253 287 260 282 266 297 293 280 312 323 329 334 334 330 323 321 320 317 313 304 296 293 292 288 289 290 286 284 282 279 274 269 264 258 253 252 254 255
251 248 252 236 227 219 255 271 289 285 260 274 252 272 282 266 288 292 291 308 318 324 328 331 328 322 322 320 319 317 314 314 308 303 299 293 290 288 284 283 281 278 274 270 266 261 256 253 252
Height
3142 3143 3142 3143 3147 3143 3141 3142 3142 3142 3142 3142 3144 3146 3148 3148 3150 3154 3150 3150 3150 3152 3152 3153 3154 3155 3155 3156 3157 3157 3158 3158 3159 3159 3159 3158 3156 3155 3155 3155 3154 3153 3153 3154 3154 3155 3156 3157 3157
3142 3142 3142 3141 3143 3141 3143 3142 3140 3141 3141 3143 3143 3145 3147 3147 3148 3148 3149 3150 3152 3152 3153 3154 3154 3154 3155 3155 3156 3157 3158 3157 3157 3158 3158 3157 3157 3155 3155 3155 3155 3154 3153 3153 3154 3155 3156 3157 3157
3141 3141 3142 3140 3140 3141 3141 3142 3140 3141 3142 3143 3144 3144 3146 3147 3146 3147 3149 3149 3150 3151 3152 3152 3152 3152 3153 3154 3155 3156 3156 3156 3156 3157 3157 3157 3157 3156 3155 3155 3155 3155 3154 3154 3154 3155 3157 3158 3158
3138 3140 3141 3139 3140 3141 3141 3141 3141 3140 3141 3141 3142 3144 3146 3147 3147 3147 3148 3149 3149 3150 3151 3151 3151 3150 3151 3151 3152 3153 3154 3155 3155 3155 3156 3157 3157 3156 3155 3155 3155 3155 3154 3154 3154 3154 3155 3156 3157
3137 3137 3137 3136 3138 3140 3140 3139 3141 3140 3140 3139 3141 3143 3144 3146 3147 3148 3147 3147 3148 3148 3147 3147 3147 3147 3147 3148 3149 3150 3151 3152 3153 3154 3155 3156 3156 3155 3155 3154 3154 3154 3153 3153 3153 3153 3153 3154 3155
3136 3135 3135 3134 3136 3138 3138 3138 3139 3139 3139 3139 3141 3141 3143 3144 3146 3146 3146 3145 3145 3145 3145 3145 3144 3144 3144 3145 3146 3146 3147 3149 3150 3151 3153 3154 3154 3155 3154 3153 3153 3152 3152 3151 3151 3152 3151 3152 3153
3134 3134 3131 3132 3135 3137 3137 3136 3137 3137 3138 3139 3139 3139 3139 3139 3141 3143 3142 3142 3141 3141 3141 3141 3142 3143 3142 3142 3142 3142 3144 3146 3148 3149 3150 3151 3151 3152 3152 3152 3152 3152 3151 3151 3150 3150 3150 3150 3151
3131 3131 3129 3131 3131 3134 3135 3135 3134 3134 3136 3137 3136 3136 3136 3136 3137 3138 3138 3138 3137 3136 3137 3137 3138 3139 3140 3139 3139 3139 3139 3141 3143 3145 3146 3147 3147 3148 3148 3149 3150 3150 3150 3150 3149 3149 3149 3149 3150
3129 3128 3127 3129 3129 3130 3131 3131 3133 3133 3134 3134 3133 3133 3134 3134 3134 3134 3134 3134 3133 3133 3133 3133 3134 3135 3135 3135 3135 3135 3136 3137 3138 3140 3141 3142 3143 3144 3145 3146 3147 3147 3147 3148 3148 3148 3147 3147 3148
3126 3125 3126 3127 3127 3126 3126 3127 3127 3130 3132 3132 3132 3132 3131 3131 3131 3130 3129 3129 3129 3128 3128 3129 3130 3130 3130 3130 3129 3131 3131 3132 3133 3134 3136 3137 3139 3140 3141 3141 3142 3143 3144 3144 3145 3145 3145 3145 3146
3121 3121 3123 3123 3123 3122 3121 3123 3124 3125 3128 3128 3125 3127 3126 3125 3124 3123 3123 3123 3123 3123 3123 3124 3125 3125 3125 3125 3125 3125 3126 3126 3127 3128 3130 3132 3134 3136 3136 3137 3138 3138 3139 3139 3140 3141 3141 3142 3142
3118 3117 3118 3118 3119 3117 3118 3117 3120 3122 3123 3120 3120 3119 3118 3116 3115 3115 3115 3116 3116 3117 3118 3118 3119 3119 3119 3119 3119 3119 3119 3120 3121 3121 3123 3125 3128 3130 3131 3132 3133 3133 3134 3134 3135 3136 3137 3138 3138
3113 3114 3114 3114 3113 3113 3113 3114 3114 3115 3117 3115 3113 3112 3111 3110 3110 3109 3107 3107 3109 3110 3112 3113 3113 3114 3113 3112 3113 3112 3113 3115 3114 3115 3116 3118 3119 3122 3125 3126 3127 3127 3128 3129 3130 3131 3132 3133 3134
3109 3108 3109 3109 3110 3109 3107 3108 3108 3113 3110 3109 3108 3106 3106 3105 3104 3103 3102 3100 3101 3103 3105 3106 3107 3107 3107 3104 3104 3104 3106 3107 3108 3109 3109 3111 3111 3112 3117 3118 3119 3119 3121 3122 3124 3125 3126 3127 3128
3104 3103 3104 3106 3105 3104 3102 3103 3105 3105 3105 3102 3101 3102 3103 3099 3098 3097 3096 3094 3094 3096 3098 3100 3101 3101 3101 3099 3096 3097 3100 3102 3103 3104 3105 3104 3105 3105 3110 3111 3110 3111 3112 3116 3117 3119 3120 3121 3122
3101 3099 3098 3100 3100 3102 3099 3097 3102 3102 3099 3097 3096 3098 3097 3092 3092 3091 3090 3089 3089 3089 3090 3091 3092 3093 3093 3092 3091 3092 3094 3095 3097 3098 3098 3099 3098 3098 3099 3089 3100 3102 3104 3106 3109 3112 3113 3113 3114
3097 3095 3095 3093 3096 3096 3095 3093 3097 3096 3094 3092 3094 3092 3088 3088 3085 3083 3082 3082 3082 3082 3083 3084 3085 3086 3087 3086 3086 3087 3088 3089 3090 3091 3092 3092 3093 3093 3093 3092 3098 3087 3082 3091 3101 3104 3105 3106 3108
3095 3093 3092 3090 3092 3090 3089 3089 3092 3091 3089 3089 3087 3085 3082 3079 3078 3077 3076 3076 3075 3075 3077 3078 3079 3080 3081 3081 3081 3080 3082 3083 3084 3084 3084 3084 3083 3083 3084 3086 3087 3085 3083 3087 3092 3094 3096 3096 3100
3090 3090 3088 3087 3089 3084 3084 3083 3085 3084 3083 3081 3080 3079 3073 3074 3072 3072 3071 3070 3070 3070 3070 3071 3072 3073 3074 3075 3075 3075 3075 3076 3076 3076 3077 3077 3075 3074 3073 3072 3074 3075 3076 3079 3081 3083 3084 3086 3091
3086 3086 3085 3084 3085 3083 3078 3077 3078 3079 3076 3074 3074 3071 3069 3067 3067 3066 3065 3064 3065 3066 3066 3067 3066 3066 3067 3068 3069 3069 3069 3069 3069 3069 3068 3068 3068 3065 3064 3064 3064 3065 3067 3069 3071 3072 3071 3066 3074
3081 3082 3082 3082 3081 3080 3075 3067 3071 3071 3071 3069 3068 3066 3064 3062 3060 3060 3060 3059 3058 3059 3058 3059 3060 3061 3062 3062 3061 3061 3061 3061 3062 3062 3061 3060 3058 3057 3057 3054 3054 3053 3055 3056 3059 3060 3059 3056 3063
3077 3080 3080 3079 3079 3078 3078 3067 3065 3064 3065 3065 3063 3061 3059 3059 3058 3057 3055 3054 3054 3053 3053 3053 3053 3053 3054 3054 3055 3054 3053 3052 3053 3054 3054 3053 3050 3048 3046 3046 3045 3044 3043 3045 3047 3048 3048 3047 3051
3073 3076 3076 3076 3076 3074 3074 3074 3058 3060 3059 3059 3059 3057 3057 3056 3056 3053 3051 3050 3050 3049 3049 3049 3048 3046 3046 3044 3044 3045 3044 3043 3043 3044 3045 3043 3042 3038 3036 3036 3035 3035 3032 3034 3036 3038 3039 3042 3046
3072 3072 3073 3072 3073 3069 3068 3070 3051 3054 3053 3053 3053 3053 3053 3053 3052 3050 3050 3048 3047 3047 3045 3043 3042 3041 3039 3037 3036 3036 3035 3034 3034 3034 3034 3033 3030 3028 3025 3024 3024 3024 3023 3022 3023 3026 3028 3030 3032
3068 3070 3070 3070 3070 3065 3062 3063 3054 3050 3050 3050 3050 3051 3051 3051 3050 3049 3049 3048 3045 3041 3036 3034 3034 3034 3033 3032 3031 3030 3027 3026 3024 3023 3022 3020 3019 3016 3015 3012 3010 3012 3013 3012 3012 3014 3016 3018 3020
3064 3066 3067 3064 3064 3061 3061 3054 3048 3049 3048 3046 3045 3046 3048 3048 3048 3046 3045 3042 3041 3038 3036 3034 3033 3031 3028 3025 3023 3022 3020 3018 3015 3012 3010 3008 3005 3003 3002 3000 2998 2997 2999 3000 3000 3000 3003 3005 3008
3061 3062 3062 3060 3060 3059 3052 3048 3044 3043 3043 3042 3042 3043 3045 3047 3046 3044 3042 3040 3039 3037 3034 3031 3029 3027 3022 3018 3015 3013 3009 3006 3003 3000 2996 2993 2990 2988 2987 2986 2985 2985 2984 2985 2986 2987 2988 2992 2995
3057 3058 3059 3058 3057 3054 3046 3043 3040 3039 3039 3039 3040 3042 3043 3044 3043 3041 3040 3038 3036 3033 3030 3026 3021 3018 3014 3009 3005 3002 2998 2996 2991 2987 2984 2981 2977 2974 2971 2970 2970 2970 2971 2971 2973 2973 2974 2976 2980
3054 3051 3052 3052 3050 3048 3046 3036 3035 3035 3035 3036 3037 3038 3039 3039 3039 3037 3035 3033 3031 3028 3023 3018 3014 3010 3005 3000 2996 2992 2989 2985 2980 2976 2972 2967 2963 2961 2958 2956 2955 2955 2955 2956 2957 2959 2960 2961 2964
3046 3045 3045 3046 3044 3041 3041 3028 3030 3030 3031 3033 3034 3034 3035 3035 3033 3032 3030 3028 3026 3023 3019 3014 3009 3004 3000 2996 2990 2984 2978 2971 2967 2963 2959 2957 2953 2949 2946 2943 2941 2940 2940 2939 2940 2943 2946 2947 2949